Location: ?
(35.3436°N, 139.3168°E)
Time: 09:23:13
(UTC+00:00)

X-37B - Pass Details

Date: 25 January 2021
Orbit: 383 x 391 km, 45.0° (Epoch: 10 February)

Event Time Altitude Azimuth Distance (km) Brightness Sun altitude
Rises 09:49:00 0° 304° (NW) 2,275 5.2 -21.5°
Reaches altitude 10° 09:51:41 10° 328° (NNW) 1,420 3.7 -22.1°
Enters shadow 09:52:21 13° 339° (NNW) 1,277 3.3 -22.2°
